Regional Weather Roundup
Issued by NWS

Home | Current Version | Previous Version | Graphics & Text | Print | Product List | Glossary On
Versions: 1 2 3 4 5 6 7 8 9 10 11 12 13 14 15 16 17 18 19 20 21 22 23 24 25 26 27 28 29 30 31 32 33 34 35 36 37 38 39 40 41 42 43 44 45 46 47 48 49 50
000
ASUS45 KBOI 070810
RWRID

IDAHO REGIONAL WEATHER ROUNDUP
NATIONAL WEATHER SERVICE BOISE ID
200 AM MDT TUE JUL 07 2015

NOTE: "FAIR" INDICATES FEW OR NO CLOUDS BELOW 12000 FEET
WITH NO SIGNIFICANT WEATHER AND/OR OBSTRUCTIONS TO VISIBILITY

IDZ012-014-070900-
SOUTHWEST IDAHO


CITY           SKY/WX    TMP DP  RH WIND       PRES   REMARKS
BOISE          CLOUDY    78  48  34 SE6       29.95F
CALDWELL       CLOUDY    72  52  49 N3        29.95S
MOUNTAIN HOME  MOCLDY    71  47  42 E2        29.97S
$$

IDZ016-017-070900-
SOUTHCENTRAL IDAHO


CITY           SKY/WX    TMP DP  RH WIND       PRES   REMARKS
BURLEY         PTCLDY    66  51  58 E6        30.07S
JEROME         MOCLDY    68  51  54 E13       30.06F
TWIN FALLS     PTCLDY    72  50  45 SE8       30.05F
$$

IDZ019>023-070900-
SOUTHEAST IDAHO


CITY           SKY/WX    TMP DP  RH WIND       PRES   REMARKS
IDAHO FALLS    MOCLDY    62  52  69 E3        30.12F
POCATELLO      CLEAR     67  49  52 E9        30.10F
REXBURG        MOCLDY    59  50  72 CALM      30.13F
$$

IDZ006-010-011-018-031-032-070900-
CENTRAL IDAHO MOUNTAINS


CITY           SKY/WX    TMP DP  RH WIND       PRES   REMARKS
MCCALL         CLEAR     56  42  59 NE7       30.12S
HAILEY         MOCLDY    64  52  63 NW7       30.17F
STANLEY          N/A     46  42  86 CALM      30.26S
SALMON         CLEAR     61  46  59 CALM      30.09R
CHALLIS        CLEAR     56  53  90 SE5       30.17S
$$

IDZ002-004-006-007-026-070900-
NORTHERN IDAHO


CITY           SKY/WX    TMP DP  RH WIND       PRES   REMARKS
LEWISTON       CLEAR     76  40  27 SE5       29.88S
LOWELL           N/A     65  53  65 N3        29.97R
COEUR D`ALENE  PTCLDY    66  46  48 NE6       29.94S
MULLAN PASS    CLOUDY    64  37  36 SE5       30.18F
$$



USA.gov is the U.S. government's official web portal to all federal, state and local government web resources and services.